Tracking 31027 objects as of 19-Jul-2025
HD Live streaming from Space Station
objects crossing your sky now

SZ-20

Track SZ-20 now!
10-day predictions


NORAD ID: 63632
Int'l Code: 2025-082A
Perigee: 398.4 km
Apogee: 409.7 km
Inclination: 41.5 °
Period: 92.5 minutes
Semi major axis: 6775 km
RCS: Unknown
Launch date: April 24, 2025
Source: People's Republic of China (PRC)
Launch site: Jiuquan Satellite Launch Center, China (JSC)
Your satellite tracking list
STARLINK-31879
Track 1 satellite(s)




NASA's NSSDC Master Catalog

Two Line Element Set (TLE):
1 63632U 25082A   25199.40252114  .00009365  00000-0  13116-3 0  9990
2 63632  41.4639 191.3624 0008285 301.1843  58.8181 15.56803465237172
Source of the keplerian elements: AFSPC